RYR2LW EGSS-LIPY

Flight info

Callsign RYR2LW
Flight time N/A
Altitude 37000
Route CLN M84 KONAN UL607 KOK DCT RITAX DCT KRH DCT UTABA DCT BEMKI DCT ELMEM DCT GIRIS DCT SUMIR DCT CHI L612 LANLI
Aircraft B738/M-SDE2E3FGHIRWXY/LB1

Departure

Time N/A
Airport London Stansted Airport (EGSS)

Arrival

Time 2026-04-11 16:19
Airport Marche Airport (LIPY)
Time Latitude Longitude Altitude Speed Heading
2026-04-11 15:54 45.22173 12.16696 28351 ft 394 kts 155°
2026-04-11 15:54 45.19764 12.18531 27944 ft 392 kts 155°
2026-04-11 15:54 45.17367 12.20355 27554 ft 391 kts 155°
2026-04-11 15:54 45.14975 12.22174 27173 ft 389 kts 155°
2026-04-11 15:55 45.12596 12.23981 26805 ft 387 kts 155°
2026-04-11 15:55 45.10230 12.25777 26419 ft 385 kts 155°
2026-04-11 15:55 45.07875 12.27562 26073 ft 383 kts 155°
2026-04-11 15:55 45.05541 12.29366 25710 ft 382 kts 153°
2026-04-11 15:56 45.03236 12.31248 25259 ft 384 kts 152°
2026-04-11 15:56 45.00945 12.33159 24924 ft 382 kts 152°
2026-04-11 15:56 44.98657 12.35069 24563 ft 381 kts 152°
2026-04-11 15:56 44.96409 12.36937 24226 ft 379 kts 152°
2026-04-11 15:57 44.94136 12.38815 23878 ft 378 kts 152°
2026-04-11 15:57 44.91865 12.40684 23536 ft 377 kts 152°
2026-04-11 15:57 44.89601 12.42543 23129 ft 376 kts 152°
2026-04-11 15:57 44.87351 12.44387 22771 ft 373 kts 152°
2026-04-11 15:58 44.85113 12.46221 22430 ft 371 kts 152°
2026-04-11 15:58 44.82886 12.48042 22086 ft 368 kts 152°
2026-04-11 15:58 44.80678 12.49846 21760 ft 366 kts 152°
2026-04-11 15:58 44.78483 12.51638 21427 ft 363 kts 152°
2026-04-11 15:59 44.76304 12.53416 21099 ft 361 kts 152°
2026-04-11 15:59 44.74139 12.55181 20785 ft 359 kts 152°
2026-04-11 15:59 44.71984 12.56936 20464 ft 357 kts 152°
2026-04-11 15:59 44.69842 12.58680 20151 ft 355 kts 152°
2026-04-11 16:00 44.67710 12.60414 19826 ft 353 kts 152°
2026-04-11 16:00 44.65591 12.62137 19505 ft 352 kts 152°
2026-04-11 16:00 44.63475 12.63855 19188 ft 350 kts 152°
2026-04-11 16:00 44.61371 12.65563 18871 ft 349 kts 152°
2026-04-11 16:01 44.59273 12.67264 18554 ft 348 kts 152°
2026-04-11 16:01 44.57181 12.68960 18207 ft 347 kts 152°
2026-04-11 16:01 44.55094 12.70648 17855 ft 346 kts 152°
2026-04-11 16:01 44.53014 12.72328 17517 ft 344 kts 152°
2026-04-11 16:02 44.50947 12.73990 17187 ft 342 kts 152°
2026-04-11 16:02 44.48890 12.75642 16870 ft 340 kts 152°
2026-04-11 16:02 44.46846 12.77282 16543 ft 338 kts 152°
2026-04-11 16:02 44.44816 12.78911 16244 ft 335 kts 152°
2026-04-11 16:03 44.42799 12.80528 15933 ft 333 kts 152°
2026-04-11 16:03 44.40789 12.82139 15635 ft 332 kts 151°
2026-04-11 16:03 44.38793 12.83738 15321 ft 330 kts 152°
2026-04-11 16:03 44.36802 12.85331 15019 ft 329 kts 152°
2026-04-11 16:04 44.34822 12.86913 14707 ft 328 kts 152°
2026-04-11 16:04 44.32847 12.88492 14429 ft 325 kts 151°
2026-04-11 16:04 44.30895 12.90055 14201 ft 322 kts 151°
2026-04-11 16:04 44.28962 12.91603 13931 ft 320 kts 151°
2026-04-11 16:05 44.27037 12.93144 13615 ft 318 kts 151°
2026-04-11 16:05 44.25120 12.94677 13308 ft 316 kts 151°
2026-04-11 16:05 44.23218 12.96198 13019 ft 314 kts 151°
2026-04-11 16:06 44.19444 12.99211 12423 ft 311 kts 151°
2026-04-11 16:06 44.17574 13.00703 12136 ft 309 kts 151°
2026-04-11 16:06 44.15712 13.02187 11844 ft 307 kts 151°
2026-04-11 16:06 44.13864 13.03658 11559 ft 306 kts 151°
2026-04-11 16:07 44.12023 13.05123 11270 ft 304 kts 151°
2026-04-11 16:07 44.10194 13.06578 10999 ft 302 kts 151°
2026-04-11 16:07 44.08371 13.08027 10721 ft 300 kts 151°
2026-04-11 16:07 44.06594 13.09438 10534 ft 294 kts 151°
2026-04-11 16:08 44.04857 13.10818 10370 ft 284 kts 151°
2026-04-11 16:08 44.03133 13.12186 10125 ft 278 kts 151°
2026-04-11 16:08 44.01496 13.13484 10038 ft 270 kts 152°
2026-04-11 16:08 43.99878 13.14765 10007 ft 266 kts 152°
2026-04-11 16:09 43.98280 13.16029 10007 ft 264 kts 152°
2026-04-11 16:09 43.96686 13.17290 9993 ft 263 kts 152°
2026-04-11 16:09 43.95058 13.18634 9691 ft 284 kts 147°
2026-04-11 16:09 43.93440 13.20289 9317 ft 291 kts 143°
2026-04-11 16:10 43.91836 13.22020 8938 ft 293 kts 143°
2026-04-11 16:10 43.90217 13.23756 8552 ft 295 kts 144°
2026-04-11 16:10 43.88582 13.25480 8177 ft 296 kts 144°
2026-04-11 16:10 43.86928 13.27207 7782 ft 299 kts 144°
2026-04-11 16:11 43.85259 13.28942 7344 ft 302 kts 144°
2026-04-11 16:11 43.83765 13.31010 6871 ft 309 kts 122°
2026-04-11 16:11 43.83088 13.33824 6404 ft 314 kts 95°
2026-04-11 16:11 43.83217 13.36853 5934 ft 316 kts 82°
2026-04-11 16:12 43.83534 13.39883 5436 ft 319 kts 81°
2026-04-11 16:12 43.83843 13.42932 5007 ft 320 kts 82°
2026-04-11 16:12 43.84137 13.45988 4547 ft 317 kts 82°
2026-04-11 16:12 43.84391 13.48982 4080 ft 309 kts 88°
2026-04-11 16:13 43.84017 13.51850 3661 ft 300 kts 114°
2026-04-11 16:13 43.82909 13.54209 3387 ft 286 kts 133°
2026-04-11 16:13 43.81540 13.56116 3140 ft 274 kts 139°
2026-04-11 16:13 43.79936 13.57349 3011 ft 257 kts 166°
2026-04-11 16:14 43.78231 13.57471 2991 ft 239 kts 190°
2026-04-11 16:14 43.76716 13.56728 3001 ft 225 kts 213°
2026-04-11 16:14 43.75606 13.55327 2995 ft 208 kts 225°
2026-04-11 16:14 43.74608 13.53983 2976 ft 192 kts 223°
2026-04-11 16:15 43.73696 13.52756 2972 ft 176 kts 224°
2026-04-11 16:15 43.72823 13.51559 2850 ft 178 kts 223°
2026-04-11 16:15 43.71945 13.50357 2622 ft 176 kts 223°
2026-04-11 16:15 43.71085 13.49178 2405 ft 173 kts 222°
2026-04-11 16:16 43.70237 13.48018 2177 ft 169 kts 222°
2026-04-11 16:16 43.69427 13.46907 1961 ft 160 kts 222°
2026-04-11 16:16 43.68653 13.45848 1777 ft 155 kts 221°
2026-04-11 16:16 43.67886 13.44799 1543 ft 155 kts 220°
2026-04-11 16:17 43.67118 13.43749 1336 ft 155 kts 220°
2026-04-11 16:17 43.66343 13.42692 1142 ft 158 kts 220°
2026-04-11 16:17 43.65562 13.41605 910 ft 160 kts 221°
2026-04-11 16:17 43.64773 13.40521 712 ft 160 kts 220°
2026-04-11 16:18 43.63976 13.39438 482 ft 162 kts 218°
2026-04-11 16:18 43.63169 13.38349 315 ft 162 kts 221°
2026-04-11 16:18 43.62364 13.37236 51 ft 161 kts 223°
2026-04-11 16:18 43.61647 13.36253 47 ft 120 kts 224°
2026-04-11 16:19 43.61214 13.35658 51 ft 56 kts 225°
2026-04-11 16:19 43.61077 13.35469 50 ft 14 kts 225°
2026-04-11 16:19 43.60996 13.35359 54 ft 20 kts 225°
2026-04-11 16:19 43.60877 13.35199 55 ft 22 kts 224°
2026-04-11 16:20 43.60809 13.35134 52 ft 20 kts 185°
2026-04-11 16:20 43.60709 13.35261 52 ft 9 kts 95°
2026-04-11 16:20 43.60745 13.35332 49 ft 10 kts 43°
2026-04-11 16:20 43.60802 13.35406 54 ft 13 kts 44°
2026-04-11 16:21 43.60826 13.35442 51 ft 3 kts 57°
2026-04-11 16:21 43.60826 13.35464 51 ft 2 kts 132°
2026-04-11 16:21 43.60805 13.35490 49 ft 2 kts 138°
2026-04-11 16:21 43.60793 13.35500 53 ft 2 kts 155°
2026-04-11 16:22 43.60787 13.35503 53 ft 0 kts 155°